RH
58 59 60 61 61 59 58 59 58 56 55 54 50 46 43 42 44 44 43 41 41 40 39 34 30 29 28 28 28 30 33 36 38 42 44 46 47 48 49 49 53 56 58 61 64 66 65 63 61 61 60 62 63 62 62 63 63 61 61 59 57 58 60 60 63 66 66 68 70 70 69 70 72 73 73 73 71 69 68 65 65 65 60 53 49
55 58 60 60 61 60 58 58 57 55 54 53 49 47 44 45 46 46 46 44 45 43 40 35 33 30 31 32 32 33 35 36 37 40 43 44 45 46 49 51 54 56 58 60 65 66 65 65 64 64 63 64 64 64 65 66 65 63 61 58 60 60 61 60 62 67 66 68 71 70 69 70 71 71 73 73 72 71 69 65 67 66 59 52 48
54 56 59 59 60 61 59 59 57 55 54 51 50 49 48 49 48 47 47 47 47 45 44 42 41 37 35 37 38 37 36 37 36 38 42 43 43 44 47 52 54 55 57 60 64 65 65 66 66 66 66 66 65 67 68 68 67 66 63 61 63 63 64 64 64 66 67 70 72 71 71 71 69 70 72 73 73 71 69 67 68 66 59 52 47
53 54 59 59 58 60 60 60 58 54 53 50 49 50 51 52 49 47 47 48 47 47 47 47 46 44 43 43 43 41 38 38 37 37 40 43 42 41 46 51 53 53 57 59 60 62 64 66 66 66 67 69 69 70 70 69 69 68 65 65 67 66 68 67 67 68 69 72 71 70 70 70 68 70 72 74 73 71 70 68 67 67 60 51 47
54 53 57 59 58 59 61 61 57 53 51 50 49 51 52 51 48 47 47 47 47 47 47 46 47 47 49 48 46 44 41 40 38 36 37 41 40 39 44 49 50 52 55 57 59 62 64 66 66 66 67 69 70 70 70 71 71 70 67 68 70 71 72 70 69 71 72 72 70 68 69 68 68 70 73 75 73 72 73 68 67 67 58 49 47
53 53 57 59 58 58 60 60 56 53 51 50 51 51 51 51 48 46 47 48 48 47 46 46 48 49 50 48 46 45 43 42 39 36 36 38 38 38 44 47 50 52 55 58 60 62 63 65 64 66 67 68 68 68 69 70 72 71 70 71 74 74 73 73 72 75 76 73 69 68 69 67 66 70 74 77 76 74 75 70 66 64 56 50 48
53 53 57 59 59 58 60 59 55 54 52 51 52 52 52 51 48 47 48 49 49 47 46 47 49 50 49 46 43 42 43 43 40 38 37 38 39 40 44 47 50 52 55 59 60 61 63 65 66 67 68 68 67 69 71 71 73 74 74 73 75 75 73 74 75 77 77 72 69 69 69 67 66 69 73 76 76 75 75 73 65 60 55 50 47
52 52 56 58 59 59 59 58 55 53 52 52 52 53 53 50 48 47 47 48 48 48 49 48 48 49 48 47 42 41 42 42 40 39 39 40 39 40 45 49 51 52 53 56 58 61 64 66 68 68 68 69 70 71 73 73 75 76 75 75 75 76 75 75 76 78 76 70 68 70 69 66 67 69 71 72 73 74 76 72 63 58 53 48 45
49 50 54 57 59 60 59 57 54 53 53 53 52 53 51 49 47 46 47 47 47 48 50 49 47 47 47 48 46 44 42 41 39 38 39 40 40 40 45 50 51 52 52 54 56 60 64 67 69 69 69 71 71 72 73 75 77 77 76 76 76 76 77 77 77 77 73 69 67 70 70 66 67 69 69 69 68 72 74 67 60 56 49 44 43
45 47 52 56 58 60 59 55 54 54 54 54 52 51 49 48 46 45 46 45 46 47 49 49 47 47 47 48 48 47 44 42 40 38 37 38 41 42 44 49 51 52 53 55 56 58 63 68 70 71 71 72 72 73 74 76 77 78 77 77 77 75 77 78 76 74 70 68 68 69 71 68 66 66 66 65 65 69 69 63 57 50 44 42 43
43 44 50 55 57 58 57 54 54 54 53 51 50 49 47 46 45 44 45 45 46 46 47 47 48 47 47 48 48 47 45 43 42 39 36 36 39 40 43 48 52 54 56 57 56 58 61 66 69 72 73 73 73 73 74 77 78 78 78 79 77 75 76 77 74 72 69 68 68 68 70 67 64 63 63 61 62 66 65 60 52 44 41 41 43
43 42 45 53 57 57 54 51 51 51 50 49 48 48 45 43 43 43 43 44 46 47 46 46 47 47 47 47 48 48 47 44 43 41 39 37 37 38 42 47 52 55 58 58 57 58 60 64 70 74 75 74 74 74 74 77 79 78 79 80 78 77 76 74 71 70 69 69 69 67 66 65 63 61 60 59 60 64 61 54 46 40 38 39 43
44 41 43 51 57 56 54 50 49 49 49 49 49 48 45 42 41 41 42 44 46 46 46 45 45 46 45 45 46 48 49 47 45 43 43 41 39 37 39 46 51 54 58 58 58 58 60 64 70 75 77 76 76 76 75 76 80 79 79 80 80 79 77 73 69 68 68 69 68 65 63 63 61 58 58 57 59 61 55 46 40 37 36 40 44
44 40 42 50 55 56 55 52 50 50 51 51 52 50 46 42 39 40 41 42 45 45 44 44 44 44 44 44 45 47 49 49 48 46 45 44 42 39 39 43 48 51 54 56 55 56 60 64 69 74 78 79 78 79 77 77 83 84 80 79 81 80 76 72 70 69 68 68 67 62 60 60 59 57 57 57 58 55 47 39 37 35 36 42 47
45 39 42 49 53 56 55 53 54 54 55 54 54 51 46 43 41 39 40 41 43 43 43 42 42 43 42 42 44 45 47 48 49 49 47 45 43 43 41 41 47 49 50 52 53 55 58 63 69 73 77 79 79 79 78 78 83 85 82 79 80 80 75 70 69 69 69 69 66 60 56 56 57 56 56 55 52 48 42 37 36 37 36 43 49
49 41 41 47 52 54 54 53 55 58 58 56 54 51 47 44 42 39 39 40 41 42 42 41 40 42 42 42 43 44 45 47 48 50 51 48 47 47 45 44 45 47 49 52 53 55 58 63 69 73 75 77 79 79 78 78 79 81 83 80 79 79 73 68 68 68 68 68 64 58 53 53 52 53 53 50 46 45 43 37 37 40 36 41 47
51 46 42 46 50 52 53 53 55 58 58 56 54 51 46 45 43 40 40 40 41 41 41 40 39 40 41 41 41 43 45 47 48 51 53 52 51 49 48 47 45 48 51 51 54 57 60 65 69 71 73 76 78 78 77 77 78 78 82 82 79 78 73 68 69 69 67 66 62 57 51 48 46 47 48 46 44 44 44 40 38 41 37 39 42
52 51 46 45 48 50 52 53 54 57 57 56 55 51 47 46 43 41 41 41 40 41 41 41 39 40 40 39 40 42 45 48 49 52 52 52 53 51 50 49 46 49 50 50 56 60 61 66 69 70 72 75 76 78 77 76 76 76 80 83 79 78 73 67 68 69 66 64 61 56 49 45 41 41 42 43 44 44 45 42 37 40 39 39 40
54 54 50 46 47 49 51 52 52 53 54 55 55 53 49 46 45 42 42 42 41 41 42 42 42 41 40 38 39 42 44 47 52 54 53 52 53 52 52 51 48 50 51 53 58 59 61 65 67 70 71 73 75 77 77 75 75 74 77 79 78 79 75 67 66 67 64 61 60 55 48 44 40 38 39 37 38 40 44 41 35 39 37 35 39
56 55 54 50 46 48 49 50 50 50 52 53 54 53 49 47 45 43 42 43 42 43 43 44 44 42 41 39 39 42 43 46 53 55 53 54 54 53 52 50 49 52 54 57 60 57 59 63 66 69 71 72 73 76 76 74 72 73 74 76 76 78 76 69 65 65 62 58 57 53 47 43 38 36 34 30 28 30 34 33 30 32 31 28 33
58 56 56 53 47 46 48 49 49 49 50 51 53 52 48 46 46 44 42 43 43 43 44 44 45 43 42 40 40 42 43 46 52 55 55 55 54 53 53 50 49 54 57 61 63 58 56 61 65 68 70 70 71 74 76 72 70 71 72 74 75 74 73 69 64 64 61 57 54 50 45 42 38 35 33 29 25 25 25 26 26 26 26 27 29
59 58 58 56 51 46 46 48 48 48 49 50 51 50 47 45 46 46 43 43 42 43 44 44 44 43 42 41 42 42 44 46 50 55 57 56 55 55 54 52 51 56 60 64 67 61 58 62 66 68 70 71 71 72 74 72 68 68 69 72 75 71 69 67 64 64 60 57 54 49 45 41 38 38 36 31 25 25 24 26 28 26 26 28 28
59 60 61 60 57 52 47 46 47 48 48 49 49 49 46 44 46 46 45 43 43 43 44 44 44 43 42 42 42 43 45 47 50 54 57 58 57 56 57 55 54 58 61 63 67 66 63 64 67 68 71 71 72 72 72 71 68 66 66 68 72 70 68 65 63 64 60 57 55 49 45 42 40 39 39 34 27 25 25 27 30 29 27 28 27
61 61 63 64 63 59 54 49 48 48 49 49 48 47 46 44 44 45 46 45 44 44 44 44 44 43 43 42 43 45 48 51 53 54 56 60 58 55 56 55 56 56 57 60 67 69 66 67 69 69 71 71 73 74 72 72 69 66 65 64 66 67 67 65 62 63 60 56 55 51 45 45 42 39 40 37 30 28 27 29 32 33 32 32 30
66 65 65 66 65 64 62 58 53 50 50 50 48 48 46 44 43 43 44 45 46 45 44 44 44 43 43 45 47 49 52 55 56 56 56 60 59 57 54 54 54 53 52 55 63 70 68 69 71 70 72 70 71 75 74 74 71 68 67 65 64 64 65 63 62 62 60 56 53 50 46 45 44 40 41 39 33 30 30 31 34 37 34 33 33
72 70 69 68 68 68 66 64 62 58 54 53 51 49 47 44 43 43 43 44 46 46 44 44 43 42 43 47 52 54 56 58 59 59 58 59 60 59 57 55 54 53 52 50 56 67 68 69 72 71 73 69 69 73 74 74 73 71 69 67 65 63 63 62 62 61 58 53 51 49 46 44 44 41 41 41 36 32 31 31 33 34 30 28 30
73 72 72 71 70 69 69 68 68 66 62 60 58 54 51 49 47 46 45 45 45 45 45 44 43 42 44 48 52 54 56 58 60 62 61 61 60 59 59 57 54 53 53 50 54 63 66 69 72 72 74 72 69 70 72 72 71 71 70 69 66 64 63 62 61 60 56 50 48 48 46 45 44 42 40 41 36 31 29 28 30 31 28 25 24
76 74 73 72 70 70 70 69 69 68 66 65 64 60 58 56 53 50 48 47 45 45 46 46 46 44 46 50 52 53 54 56 57 60 62 61 61 60 59 58 56 55 54 51 52 59 62 67 72 73 74 73 71 69 70 70 70 69 68 68 66 64 64 62 60 59 57 52 49 48 48 47 45 43 41 40 36 30 28 27 28 30 28 25 23
77 75 74 73 72 71 72 70 69 69 68 68 67 65 65 62 58 54 50 49 48 49 51 52 53 50 50 52 53 54 53 53 55 59 60 59 61 62 61 60 59 56 54 51 50 55 59 63 69 74 75 73 72 71 70 70 70 69 68 67 66 64 63 62 60 58 56 54 51 49 50 49 47 44 43 41 38 32 29 27 28 29 28 26 23
77 75 74 74 73 72 72 71 68 69 70 69 69 70 70 67 62 59 57 54 53 56 57 57 57 55 53 54 54 54 53 53 55 59 60 60 61 63 62 60 59 58 57 53 49 51 56 58 64 73 75 73 72 72 70 70 70 69 68 67 66 64 61 61 59 57 56 55 53 51 50 50 47 45 44 43 40 36 32 29 29 29 29 27 25
76 74 74 76 74 71 71 70 67 67 69 70 71 74 75 73 67 65 65 63 59 61 61 61 61 57 55 55 56 56 55 54 54 57 58 60 61 62 62 61 60 59 58 55 51 51 54 55 60 68 74 73 74 73 70 70 69 68 68 66 65 65 63 61 59 56 55 55 55 53 51 50 48 46 46 43 41 39 36 32 30 30 30 29 27
74 74 76 79 77 72 70 70 68 67 68 71 74 77 79 77 73 70 70 68 65 65 66 66 65 63 60 58 58 57 56 55 55 56 58 60 61 61 63 62 61 60 59 58 54 52 53 54 57 64 72 75 76 75 71 71 70 67 66 64 64 64 63 63 60 56 55 55 54 54 53 52 50 50 49 45 41 40 38 35 33 32 32 31 29
73 74 75 77 78 76 73 73 72 68 65 68 75 79 79 79 77 74 73 71 69 69 68 68 68 67 65 63 62 61 60 57 57 58 58 59 60 60 60 60 60 60 61 59 56 54 53 53 55 61 69 74 75 75 71 70 70 67 64 62 62 62 62 62 61 58 56 55 55 54 56 56 54 53 52 48 44 41 40 38 36 34 34 34 32
73 73 72 73 75 76 76 77 76 73 69 70 74 77 78 79 77 75 75 74 72 70 69 70 69 67 65 65 65 65 64 61 59 60 60 60 61 60 61 61 60 60 60 60 59 57 54 52 52 57 66 70 72 74 73 70 69 67 65 63 61 61 62 61 59 58 56 56 56 55 56 57 56 54 53 51 49 45 42 39 37 36 38 38 37
75 73 73 74 75 76 77 79 80 79 77 77 78 79 80 80 79 77 76 76 75 74 72 72 72 71 69 69 68 67 66 65 63 63 64 65 64 63 64 65 64 62 60 61 61 59 57 53 50 53 61 68 71 72 74 71 68 68 67 66 63 61 62 61 59 58 57 57 57 57 57 57 56 56 55 54 51 48 44 40 37 36 39 41 41
77 75 77 79 79 78 78 78 80 81 81 81 83 83 83 82 81 80 78 78 78 76 76 75 76 76 75 74 73 71 69 67 66 67 68 68 66 65 65 67 67 65 62 62 62 61 59 55 51 49 56 67 71 72 74 73 70 69 68 67 66 64 62 61 61 59 58 59 58 59 59 58 57 56 55 54 52 49 46 42 38 36 36 39 42
79 79 79 80 80 80 78 79 81 82 83 84 85 85 85 85 85 84 83 82 81 80 79 79 79 79 79 78 76 75 73 69 68 68 68 67 66 65 66 67 68 69 67 64 63 65 63 59 52 48 55 67 71 71 74 74 71 68 66 66 68 67 64 63 63 61 60 60 60 60 60 59 59 58 56 55 53 50 46 44 40 38 36 37 39
78 79 79 80 81 82 83 84 84 84 85 86 87 86 86 87 87 87 86 85 84 83 82 82 81 80 80 79 77 76 74 73 72 69 67 66 66 67 67 69 70 70 70 67 66 67 66 62 55 50 55 65 69 71 73 73 72 69 65 67 69 69 67 65 66 66 63 61 61 61 61 60 59 58 58 56 55 52 49 45 42 41 41 39 39
73 74 76 77 79 81 82 84 84 83 84 84 84 84 83 84 83 83 82 82 81 81 80 80 79 78 77 76 75 74 74 73 73 71 69 68 68 68 68 69 70 70 69 68 68 68 66 63 59 52 54 62 66 68 71 72 74 73 69 68 70 68 68 68 68 68 66 63 62 62 62 61 60 60 60 59 58 55 51 48 44 43 43 43 41
67 67 69 71 72 72 74 77 78 76 76 77 77 77 76 76 76 77 77 77 77 77 77 77 77 76 75 74 75 76 76 75 75 75 73 71 69 69 69 68 69 70 70 69 69 69 67 64 61 55 54 60 61 62 67 71 72 73 71 70 70 68 67 69 70 69 68 65 63 64 64 64 63 62 61 61 60 58 55 51 48 45 44 43 43
61 62 63 64 64 63 64 67 68 68 67 66 66 67 68 69 70 70 72 74 75 75 75 75 75 74 73 74 74 76 78 78 78 77 76 74 71 70 70 69 69 69 69 70 70 68 67 66 63 58 55 58 60 60 64 69 71 72 71 70 71 70 68 69 70 70 67 65 64 65 64 64 64 62 60 60 59 58 57 55 53 50 48 45 43
56 57 58 58 59 59 59 59 60 60 60 60 60 61 61 63 65 66 68 69 70 70 69 69 69 69 69 69 70 73 75 77 78 79 78 76 74 72 71 71 70 69 68 70 71 69 67 67 65 61 56 58 65 65 64 67 70 72 72 73 75 72 70 70 71 70 66 64 64 65 64 64 63 63 62 61 59 58 57 57 56 55 53 49 45
51 51 51 51 52 53 52 52 54 54 55 55 57 57 58 59 60 61 62 62 63 63 62 61 62 62 63 64 65 67 69 70 73 76 78 78 76 75 73 73 73 72 68 68 69 69 67 67 67 64 58 58 64 65 64 67 69 73 75 76 78 76 72 70 69 67 65 65 66 65 65 64 63 63 64 64 63 61 59 57 57 57 55 51 49
45 44 46 46 46 48 48 47 48 49 49 50 51 53 54 55 56 55 54 55 56 58 58 57 56 58 59 59 59 61 63 65 67 69 73 76 78 77 76 75 76 74 70 67 68 68 67 68 68 66 61 57 61 63 65 69 71 76 76 72 76 78 72 68 66 65 66 67 66 65 65 64 63 64 64 64 63 62 61 60 58 58 56 54 52
44 42 43 44 46 47 46 45 46 46 48 51 52 52 51 48 49 49 48 50 52 54 56 56 55 57 57 57 55 56 58 60 62 64 66 70 74 78 79 78 78 76 73 69 69 69 68 67 67 67 63 60 59 59 62 66 68 72 71 66 70 76 73 68 67 66 67 67 65 65 66 64 63 63 63 64 63 61 62 62 61 59 57 54 52
50 49 44 43 49 51 50 52 51 47 49 55 57 57 55 50 48 48 47 48 50 52 53 53 53 53 54 53 53 53 54 56 58 60 62 64 67 71 76 77 78 78 76 73 72 71 70 68 66 65 64 62 60 58 58 61 64 67 67 62 62 70 73 71 69 69 67 65 64 66 67 65 63 64 64 64 62 61 60 61 61 60 59 56 53
47 48 42 40 47 52 53 51 47 44 49 58 59 54 51 47 45 46 44 45 49 51 50 51 52 52 53 53 51 51 52 52 54 56 58 59 61 63 66 70 74 76 77 76 75 73 71 69 68 66 64 62 60 59 57 57 61 62 65 64 60 65 74 75 74 73 67 65 65 66 66 64 63 63 63 62 60 59 59 59 60 60 59 57 56
38 37 35 35 37 39 42 39 36 38 41 45 47 42 39 39 40 40 38 39 43 46 47 49 50 51 51 52 52 52 51 50 52 54 54 54 55 56 58 62 67 72 76 78 77 76 72 71 70 69 67 64 62 60 59 59 60 58 61 66 64 65 70 71 74 75 69 66 65 64 64 65 63 62 62 61 59 58 58 57 57 58 59 59 57
35 33 31 32 32 31 31 31 32 33 32 32 34 34 33 32 33 34 33 34 37 39 40 42 44 44 45 47 49 49 50 49 50 52 53 53 54 53 53 54 57 63 70 75 78 78 77 73 71 71 69 67 65 63 61 60 62 61 59 61 64 66 67 66 68 72 71 67 65 64 64 65 66 65 64 63 60 58 57 56 55 56 57 58 59
33 30 27 27 28 27 26 26 27 27 26 26 27 28 28 28 27 27 28 29 31 32 33 35 38 39 40 41 42 43 44 45 46 48 50 53 54 54 53 52 51 54 59 67 74 78 79 76 72 72 71 70 69 67 65 61 61 64 61 57 58 62 64 64 63 66 70 69 67 67 66 65 67 69 67 65 63 61 59 57 56 56 56 56 57
30 28 26 25 26 26 25 24 24 25 25 24 25 26 26 25 24 22 22 23 23 23 24 26 29 31 33 34 35 36 37 39 41 43 46 48 51 53 54 54 53 52 52 57 65 72 77 77 75 73 72 71 71 70 68 64 60 62 62 58 54 54 58 62 64 65 68 69 68 69 68 66 67 68 69 67 65 64 62 59 57 57 56 54 54